THOR ABLESTAR DEB, 416

Orbit data source: Space-Track

THOR ABLESTAR DEB, 416 is space debris in LEO originally from a launch on Thu, 29 Jun 1961 UTC launched from the Air Force Eastern Test Range (AFETR). Debris objects in space refer to the collection of defunct objects orbiting the Earth. Examples of debris include non-operational satellites, rocket bodies, and fragments generated from explosions, collisions, or faulty payload assembly.

Loading next visibility...
Identifier
416, 1961-015ER
Orbit
LEO
Country
Flag of USUS
Related business
Manufacturer
Unknown
Mission
Spacecraft
Bus & Motor
Unknown
Mass
Unknown
Launch date (UTC)
1961-06-29 (65 years ago)
Launch vehicle
Unknown
Launch site
Air Force Eastern Test Range (AFETR)
Object type
Payload
Rocket body
Debris
Shape & HBR
Unknown shape, 0.1 m
Radar Cross Section
Medium (>0.1 m² and <1 m²)

Expand to show TLE details & history
Last TLE update: 23 hours ago

TLE from 23 hours ago
0 THOR ABLESTAR DEB
1 00416U 61015ER  26174.50188659  .00000079  00000-0  82077-4 0  9990
2 00416  66.4938 259.7272 0076346 172.0980 188.1332 14.14738498332740
Epoch: 2026-06-23T12:02Z
TLE epoch observation values (Epoch: 2026-06-23T12:02:43.001Z)
Latitude
0.00001°
Longitude
167.37549°
Altitude
899.87 km
Speed
7.375 km/s
True Right ascension
17h 18m 54s
True Declination
0° 00' 00"
Sunlit
Object was in full shadow at epoch
Visualization orbit readout
Latitude
Unknown
Longitude
Unknown
Altitude
Unknown
Speed
Unknown
Apparent Right ascension
Unknown
Apparent Declination
Unknown
Sunlit
N/A
Visualization observer readout
Local Sidereal Time
22:40:19
Azimuth
Unknown
Elevation
Unknown
Doppler factor
Unknown
Orbital elements
Apogee altitude
896.732 km
Perigee altitude
786.492 km
Semi-major axis
7,219.749 km
Eccentricity
0.00763
Inclination
66.4938°
RAAN
259.7272°
Arg. of periapsis
172.098°
True anomaly
188.01059°
Mean anomaly
188.1332°
Eccentric anomaly
188.07178°
Mean motion
3.53802 °/min
Orbital period
101.75 mins
BSTAR
0.000082077
Loading maneuver chart data...
Computing Atmospheric mass density...

Documentation

Showing up to 5 results
|